Time,TemperatureF,DewpointF,PressureIn,WindDirection,WindDirectionDegrees,WindSpeedMPH,WindSpeedGustMPH,Humidity,HourlyPrecipIn,Conditions,Clouds,dailyrainin,SoftwareType,DateUTC
2013-01-07 01:23:00,55.0,-99.9,-100.00,NNW,331,3.0,4.0,-999,-99.99,,,-99.99,,2013-01-07 09:23:00,
2013-01-07 01:33:00,55.0,-99.9,-100.00,NNW,331,3.0,4.0,-999,-99.99,,,-99.99,,2013-01-07 09:33:00,
2013-01-07 01:40:00,54.0,-99.9,-100.00,East,89,6.0,8.0,-999,-99.99,,,-99.99,,2013-01-07 09:40:00,
2013-01-07 02:02:00,54.0,-99.9,-100.00,NE,34,2.0,8.0,-999,-99.99,,,-99.99,,2013-01-07 10:02:00,
2013-01-07 02:12:00,54.0,-99.9,-100.00,NE,34,2.0,8.0,-999,-99.99,,,-99.99,,2013-01-07 10:12:00,
2013-01-07 02:23:00,54.0,-99.9,-100.00,East,89,6.0,8.0,-999,-99.99,,,-99.99,,2013-01-07 10:23:00,
2013-01-07 02:33:00,54.0,-99.9,-100.00,East,89,6.0,8.0,-999,-99.99,,,-99.99,,2013-01-07 10:33:00,
2013-01-07 03:10:00,54.0,-99.9,-100.00,East,84,0.0,0.0,-999,-99.99,,,-99.99,,2013-01-07 11:10:00,
2013-01-07 03:53:00,54.0,-99.9,-100.00,East,84,0.0,0.0,-999,-99.99,,,-99.99,,2013-01-07 11:53:00,
2013-01-07 04:03:00,54.0,-99.9,-100.00,East,84,0.0,0.0,-999,-99.99,,,-99.99,,2013-01-07 12:03:00,
2013-01-07 04:10:00,52.0,-99.9,-100.00,East,99,1.0,14.0,-999,-99.99,,,-99.99,,2013-01-07 12:10:00,
2013-01-07 04:23:00,54.0,-99.9,-100.00,West,272,1.0,1.0,-999,-99.99,,,-99.99,,2013-01-07 12:23:00,
2013-01-07 04:33:00,51.0,-99.9,-100.00,ENE,78,2.0,2.0,-999,-99.99,,,-99.99,,2013-01-07 12:33:00,
2013-01-07 04:43:00,51.0,-99.9,-100.00,ENE,78,2.0,2.0,-999,-99.99,,,-99.99,,2013-01-07 12:43:00,
2013-01-07 04:53:00,52.0,-99.9,-100.00,East,99,1.0,14.0,-999,-99.99,,,-99.99,,2013-01-07 12:53:00,
2013-01-07 05:03:00,52.0,-99.9,-100.00,East,99,1.0,14.0,-999,-99.99,,,-99.99,,2013-01-07 13:03:00,
2013-01-07 05:23:00,51.0,-99.9,-100.00,SE,140,0.0,3.0,-999,-99.99,,,-99.99,,2013-01-07 13:23:00,
2013-01-07 05:33:00,51.0,-99.9,-100.00,SE,140,0.0,3.0,-999,-99.99,,,-99.99,,2013-01-07 13:33:00,
2013-01-07 07:33:00,50.0,-99.9,-100.00,NE,54,1.0,6.0,-999,-99.99,,,-99.99,,2013-01-07 15:33:00,
2013-01-07 07:43:00,50.0,-99.9,-100.00,NE,54,1.0,6.0,-999,-99.99,,,-99.99,,2013-01-07 15:43:00,
2013-01-07 07:53:00,50.0,-99.9,-100.00,NE,54,1.0,6.0,-999,-99.99,,,-99.99,,2013-01-07 15:53:00,
2013-01-07 08:53:00,59.0,-99.9,-100.00,WSW,257,6.0,16.0,-999,-99.99,,,-99.99,,2013-01-07 16:53:00,
2013-01-07 09:03:00,60.0,-99.9,-100.00,WNW,288,3.0,9.0,-999,-99.99,,,-99.99,,2013-01-07 17:03:00,
2013-01-07 09:12:00,60.0,-99.9,-100.00,WNW,288,3.0,9.0,-999,-99.99,,,-99.99,,2013-01-07 17:12:00,
2013-01-07 09:53:00,61.0,-99.9,-100.00,West,261,1.0,16.0,-999,-99.99,,,-99.99,,2013-01-07 17:53:00,
2013-01-07 10:03:00,61.0,-99.9,-100.00,West,261,1.0,16.0,-999,-99.99,,,-99.99,,2013-01-07 18:03:00,
2013-01-07 11:03:00,65.0,-99.9,-100.00,NE,34,3.0,7.0,-999,-99.99,,,-99.99,,2013-01-07 19:03:00,
2013-01-07 11:13:00,65.0,-99.9,-100.00,NE,34,3.0,7.0,-999,-99.99,,,-99.99,,2013-01-07 19:13:00,
2013-01-07 14:03:00,69.0,-99.9,-100.00,West,271,8.0,11.0,-999,-99.99,,,-99.99,,2013-01-07 22:03:00,
2013-01-07 14:12:00,69.0,-99.9,-100.00,West,271,8.0,11.0,-999,-99.99,,,-99.99,,2013-01-07 22:12:00,
2013-01-07 14:40:00,71.0,-99.9,-100.00,North,0,3.0,6.0,-999,-99.99,,,-99.99,,2013-01-07 22:40:00,
2013-01-07 15:03:00,70.0,-99.9,-100.00,ESE,106,3.0,5.0,-999,-99.99,,,-99.99,,2013-01-07 23:03:00,
2013-01-07 15:12:00,70.0,-99.9,-100.00,ESE,106,3.0,5.0,-999,-99.99,,,-99.99,,2013-01-07 23:12:00,
2013-01-07 15:23:00,71.0,-99.9,-100.00,North,0,3.0,6.0,-999,-99.99,,,-99.99,,2013-01-07 23:23:00,
2013-01-07 15:33:00,71.0,-99.9,-100.00,North,0,3.0,6.0,-999,-99.99,,,-99.99,,2013-01-07 23:33:00,
2013-01-07 16:40:00,69.0,-99.9,-100.00,SW,225,0.0,2.0,-999,-99.99,,,-99.99,,2013-01-08 00:40:00,
2013-01-07 17:03:00,70.0,-99.9,-100.00,NE,46,0.0,3.0,-999,-99.99,,,-99.99,,2013-01-08 01:03:00,
2013-01-07 17:12:00,70.0,-99.9,-100.00,NE,46,0.0,3.0,-999,-99.99,,,-99.99,,2013-01-08 01:12:00,
2013-01-07 17:23:00,69.0,-99.9,-100.00,SW,225,0.0,2.0,-999,-99.99,,,-99.99,,2013-01-08 01:23:00,
2013-01-07 17:33:00,69.0,-99.9,-100.00,SW,225,0.0,2.0,-999,-99.99,,,-99.99,,2013-01-08 01:33:00,
2013-01-07 17:53:00,69.0,-99.9,-100.00,SSE,152,1.0,4.0,-999,-99.99,,,-99.99,,2013-01-08 01:53:00,
2013-01-07 18:03:00,68.0,-99.9,-100.00,NW,318,0.0,0.0,-999,-99.99,,,-99.99,,2013-01-08 02:03:00,
2013-01-07 18:12:00,68.0,-99.9,-100.00,NW,318,0.0,0.0,-999,-99.99,,,-99.99,,2013-01-08 02:12:00,
2013-01-07 18:23:00,68.0,-99.9,-100.00,NW,318,0.0,0.0,-999,-99.99,,,-99.99,,2013-01-08 02:23:00,
2013-01-07 20:10:00,63.0,-99.9,-100.00,East,97,0.0,2.0,-999,-99.99,,,-99.99,,2013-01-08 04:10:00,
2013-01-07 20:52:00,63.0,-99.9,-100.00,East,97,0.0,2.0,-999,-99.99,,,-99.99,,2013-01-08 04:52:00,
2013-01-07 21:04:00,63.0,-99.9,-100.00,East,97,0.0,2.0,-999,-99.99,,,-99.99,,2013-01-08 05:04:00,
2013-01-07 22:40:00,61.0,-99.9,-100.00,West,281,1.0,11.0,-999,-99.99,,,-99.99,,2013-01-08 06:40:00,
2013-01-07 23:22:00,61.0,-99.9,-100.00,West,281,1.0,11.0,-999,-99.99,,,-99.99,,2013-01-08 07:22:00,
2013-01-07 23:32:00,61.0,-99.9,-100.00,West,281,1.0,11.0,-999,-99.99,,,-99.99,,2013-01-08 07:32:00,